GFSNE_700_temp_231.txt.gz
Temp
-2 -2 -3 -4 -5 -5 -5 -5 -5 -5 -4 -4 -4 -4 -4 -4 -3 -4 -4 -3 -3 -3 -4 -3 -3 -4 -4 -4 -6 -5 -4 -4 -3 -4 -3 -3 -3 -3
-2 -3 -4 -5 -5 -6 -6 -6 -5 -6 -5 -5 -5 -4 -4 -4 -4 -4 -5 -4 -4 -4 -4 -4 -4 -4 -4 -4 -6 -6 -5 -4 -4 -4 -4 -4 -4 -3
-4 -5 -5 -6 -6 -6 -6 -6 -6 -6 -6 -6 -5 -5 -4 -5 -6 -5 -5 -5 -5 -5 -5 -4 -4 -5 -5 -5 -8 -6 -6 -5 -5 -5 -4 -4 -4 -4
-5 -6 -6 -6 -6 -6 -6 -7 -7 -7 -7 -6 -6 -5 -5 -5 -7 -5 -5 -5 -5 -5 -5 -5 -5 -5 -5 -5 -8 -7 -6 -6 -6 -6 -5 -5 -5 -5
-5 -6 -7 -7 -7 -6 -7 -6 -7 -6 -6 -7 -6 -6 -6 -6 -6 -7 -6 -6 -6 -6 -6 -6 -6 -6 -6 -6 -8 -8 -7 -7 -6 -6 -6 -5 -5 -5
-6 -7 -7 -7 -7 -7 -7 -7 -7 -7 -7 -6 -7 -6 -7 -7 -7 -7 -6 -6 -6 -6 -7 -7 -7 -7 -7 -7 -9 -8 -8 -9 -7 -7 -7 -6 -6 -6
-7 -7 -7 -7 -7 -7 -7 -7 -7 -7 -7 -7 -7 -8 -8 -8 -7 -7 -7 -7 -7 -7 -7 -8 -8 -7 -7 -7 -8 -8 -9 -8 -7 -7 -7 -7 -7 -7
-7 -7 -7 -7 -7 -7 -7 -7 -7 -7 -7 -8 -8 -8 -8 -8 -8 -7 -7 -7 -7 -8 -8 -8 -8 -8 -8 -8 -8 -10 -9 -8 -7 -7 -7 -7 -7 -7
-7 -7 -7 -7 -7 -7 -7 -7 -7 -7 -7 -8 -8 -8 -8 -8 -8 -7 -7 -7 -7 -8 -8 -9 -8 -8 -9 -8 -11 -10 -8 -8 -8 -8 -8 -8 -7 -8
-6 -7 -7 -7 -7 -7 -7 -7 -7 -7 -8 -8 -8 -8 -8 -8 -8 -8 -8 -8 -9 -9 -9 -9 -8 -9 -9 -9 -12 -11 -9 -8 -8 -8 -8 -8 -8 -8
-7 -7 -7 -7 -7 -7 -7 -7 -7 -8 -8 -8 -8 -8 -8 -8 -8 -9 -9 -9 -10 -10 -9 -9 -9 -9 -9 -10 -11 -10 -9 -9 -8 -8 -8 -8 -8 -8
-7 -7 -7 -7 -7 -7 -7 -8 -7 -8 -8 -8 -8 -8 -8 -8 -9 -10 -10 -10 -10 -10 -10 -10 -9 -9 -10 -10 -10 -10 -9 -9 -9 -8 -8 -8 -8 -9
-6 -6 -6 -7 -8 -8 -7 -7 -8 -8 -8 -8 -8 -8 -8 -8 -9 -9 -10 -10 -10 -10 -9 -9 -9 -10 -10 -10 -9 -9 -9 -9 -9 -9 -9 -9 -9 -9
-6 -7 -8 -8 -7 -7 -8 -8 -8 -8 -8 -8 -8 -8 -8 -8 -9 -10 -10 -10 -11 -11 -11 -11 -11 -10 -9 -9 -9 -9 -9 -9 -9 -9 -9 -9 -9 -8
-7 -7 -8 -8 -8 -8 -8 -8 -8 -8 -8 -8 -8 -8 -8 -8 -9 -10 -10 -10 -10 -11 -11 -12 -12 -11 -10 -10 -9 -9 -9 -9 -9 -9 -9 -9 -9 -8
-7 -7 -7 -8 -8 -8 -8 -8 -8 -8 -8 -8 -8 -9 -9 -9 -9 -10 -10 -10 -10 -10 -10 -11 -11 -11 -10 -10 -10 -10 -9 -9 -9 -9 -9 -9 -9 -9
-7 -7 -7 -8 -8 -8 -8 -8 -8 -8 -8 -9 -9 -9 -9 -9 -9 -10 -10 -10 -10 -10 -9 -9 -9 -9 -9 -9 -9 -9 -10 -10 -10 -10 -9 -9 -9 -9
-7 -7 -7 -7 -8 -8 -8 -8 -8 -8 -9 -9 -9 -9 -9 -9 -9 -10 -10 -10 -10 -10 -10 -10 -10 -9 -9 -8 -8 -9 -9 -9 -9 -9 -9 -10 -10 -9
-8 -8 -7 -8 -8 -9 -9 -9 -8 -9 -9 -9 -9 -9 -9 -9 -10 -10 -10 -10 -10 -10 -10 -10 -10 -10 -10 -9 -9 -9 -9 -9 -9 -9 -9 -9 -9 -10
-8 -8 -8 -8 -9 -9 -9 -9 -9 -9 -9 -9 -9 -9 -9 -9 -9 -9 -10 -10 -10 -10 -10 -10 -10 -10 -10 -10 -10 -10 -10 -10 -10 -10 -10 -10 -10 -10
-8 -8 -8 -8 -9 -9 -9 -9 -9 -9 -9 -9 -9 -10 -10 -10 -10 -10 -10 -9 -10 -10 -10 -10 -10 -11 -12 -11 -11 -11 -10 -11 -11 -11 -11 -11 -11 -10
-8 -8 -8 -8 -9 -9 -9 -10 -10 -10 -10 -10 -10 -10 -10 -10 -10 -10 -10 -10 -10 -10 -10 -11 -11 -12 -12 -11 -11 -11 -11 -11 -11 -11 -11 -11 -11 -11
-8 -8 -9 -9 -9 -9 -9 -9 -10 -10 -10 -10 -10 -10 -11 -10 -10 -10 -10 -10 -11 -11 -11 -11 -11 -11 -12 -12 -12 -12 -12 -12 -12 -12 -12 -12 -12 -12

GFSNE_700_temp_237.txt.gz
Temp
-2 -2 -1 -1 -2 -2 -3 -3 -5 -4 -4 -4 -5 -5 -5 -6 -6 -6 -5 -5 -5 -4 -3 -3 -3 -3 -3 -3 -3 -4 -4 -4 -4 -6 -5 -6 -6 -3
-2 -2 -2 -2 -2 -3 -4 -4 -6 -6 -6 -6 -6 -6 -6 -6 -6 -6 -6 -6 -5 -5 -4 -3 -4 -4 -4 -3 -3 -4 -4 -4 -5 -6 -5 -6 -6 -5
-2 -2 -2 -3 -3 -3 -4 -5 -6 -7 -7 -6 -6 -6 -6 -6 -7 -6 -6 -6 -6 -5 -4 -4 -4 -4 -4 -4 -3 -4 -4 -5 -5 -5 -5 -6 -6 -6
-3 -2 -3 -3 -3 -4 -5 -6 -6 -7 -7 -7 -7 -7 -7 -7 -6 -6 -6 -6 -5 -6 -5 -5 -4 -5 -4 -5 -4 -4 -5 -5 -6 -6 -6 -8 -7 -8
-3 -3 -3 -3 -4 -4 -5 -6 -7 -7 -7 -7 -7 -7 -6 -6 -6 -6 -6 -6 -6 -6 -5 -5 -5 -5 -5 -5 -5 -5 -5 -6 -6 -7 -7 -7 -6 -6
-3 -3 -3 -4 -4 -5 -5 -6 -7 -8 -7 -7 -7 -7 -6 -6 -6 -6 -6 -6 -6 -6 -6 -6 -6 -6 -6 -6 -5 -5 -6 -7 -7 -8 -8 -6 -6 -6
-3 -3 -3 -4 -5 -5 -6 -7 -7 -8 -7 -7 -7 -7 -7 -7 -7 -6 -6 -6 -7 -6 -6 -7 -6 -6 -7 -6 -6 -6 -7 -7 -7 -9 -8 -7 -7 -7
-3 -4 -4 -5 -5 -6 -6 -7 -7 -7 -6 -7 -7 -7 -7 -7 -7 -7 -7 -8 -8 -8 -8 -7 -7 -6 -6 -7 -7 -7 -8 -7 -8 -9 -10 -8 -8 -7
-4 -4 -4 -5 -6 -6 -6 -6 -7 -8 -8 -8 -7 -7 -7 -8 -8 -8 -8 -8 -9 -8 -8 -7 -7 -7 -7 -7 -8 -8 -8 -9 -9 -10 -9 -8 -8 -7
-4 -5 -5 -6 -6 -6 -6 -6 -7 -7 -7 -7 -7 -7 -7 -8 -8 -8 -8 -8 -9 -9 -8 -7 -8 -8 -8 -9 -9 -9 -9 -9 -9 -11 -11 -10 -8 -8
-5 -5 -5 -6 -6 -6 -7 -7 -7 -7 -7 -7 -7 -7 -8 -8 -8 -8 -8 -8 -8 -9 -9 -8 -8 -8 -9 -9 -9 -9 -9 -10 -10 -11 -10 -10 -8 -8
-6 -6 -6 -6 -6 -6 -6 -7 -7 -7 -7 -7 -7 -7 -8 -8 -8 -8 -8 -8 -9 -10 -10 -9 -9 -9 -10 -10 -10 -10 -10 -10 -10 -10 -11 -9 -9 -8
-6 -6 -6 -6 -6 -6 -7 -7 -7 -7 -7 -7 -7 -8 -8 -8 -8 -9 -9 -9 -10 -10 -10 -9 -9 -9 -9 -9 -10 -10 -11 -11 -11 -10 -11 -9 -9 -9
-6 -6 -6 -7 -6 -6 -7 -8 -7 -8 -8 -7 -8 -8 -8 -8 -9 -9 -9 -9 -10 -11 -11 -10 -10 -10 -10 -10 -10 -11 -11 -11 -11 -12 -10 -9 -9 -9
-7 -7 -7 -7 -7 -7 -8 -8 -8 -8 -8 -8 -8 -8 -8 -8 -9 -9 -9 -10 -10 -11 -11 -10 -10 -10 -10 -11 -11 -11 -11 -11 -11 -11 -10 -9 -9 -9
-7 -7 -8 -7 -7 -7 -8 -8 -9 -8 -8 -8 -8 -8 -8 -8 -9 -10 -10 -10 -10 -11 -12 -11 -12 -12 -12 -12 -12 -11 -11 -11 -12 -10 -10 -9 -9 -9
-7 -7 -8 -8 -8 -7 -8 -8 -8 -8 -8 -8 -8 -8 -8 -8 -9 -9 -9 -10 -10 -11 -11 -11 -11 -11 -11 -12 -11 -11 -12 -11 -11 -10 -10 -9 -9 -9
-8 -8 -8 -8 -8 -8 -8 -8 -8 -8 -8 -8 -9 -9 -9 -9 -9 -9 -9 -10 -11 -11 -11 -11 -11 -11 -11 -11 -11 -11 -11 -11 -11 -10 -10 -10 -9 -9
-8 -8 -8 -8 -8 -8 -8 -8 -8 -9 -9 -9 -9 -9 -9 -9 -9 -9 -9 -10 -10 -11 -11 -11 -11 -11 -11 -10 -11 -10 -10 -10 -10 -10 -10 -9 -9 -10
-8 -8 -8 -8 -8 -8 -8 -8 -9 -9 -9 -9 -9 -9 -9 -9 -9 -9 -9 -9 -10 -10 -10 -11 -11 -11 -11 -10 -10 -10 -11 -10 -10 -10 -10 -10 -10 -10
-8 -8 -8 -8 -9 -8 -8 -9 -9 -9 -9 -9 -9 -9 -10 -10 -10 -10 -10 -10 -10 -10 -10 -11 -11 -11 -11 -11 -11 -10 -10 -10 -10 -10 -10 -10 -10 -10
-9 -9 -8 -8 -9 -9 -9 -9 -9 -10 -10 -10 -10 -10 -10 -10 -10 -10 -10 -10 -10 -10 -10 -10 -11 -11 -10 -10 -10 -11 -10 -10 -10 -10 -10 -10 -10 -10
-9 -9 -9 -9 -9 -9 -9 -9 -9 -10 -10 -10 -10 -10 -10 -10 -10 -10 -10 -10 -10 -10 -10 -10 -10 -11 -11 -11 -11 -11 -11 -11 -11 -10 -10 -10 -10 -10

GFSNE_700_temp_243.txt.gz
Temp
1 1 -0 -0 -0 -1 -2 -3 -2 -0 1 -1 -1 -2 -3 -4 -5 -5 -5 -6 -6 -6 -6 -6 -6 -5 -5 -4 -4 -4 -3 -3 -2 -2 -2 -2 -1 -2
1 1 0 -0 -1 -2 -2 -3 -3 -3 -1 -2 -2 -3 -4 -5 -5 -6 -6 -6 -6 -6 -6 -6 -6 -6 -6 -5 -4 -4 -4 -4 -2 -2 -2 -2 -2 -3
1 -0 -0 -1 -1 -2 -3 -3 -3 -3 -3 -2 -3 -4 -5 -5 -6 -6 -6 -6 -6 -7 -7 -7 -7 -6 -6 -5 -4 -4 -3 -3 -3 -3 -3 -2 -3 -3
0 -1 -0 -1 -2 -3 -3 -3 -3 -3 -3 -4 -4 -5 -5 -6 -6 -6 -6 -6 -6 -6 -6 -6 -6 -6 -6 -6 -4 -4 -4 -3 -3 -3 -3 -3 -3 -3
0 0 -1 -2 -2 -3 -3 -3 -3 -3 -4 -4 -5 -5 -5 -6 -6 -6 -6 -6 -6 -5 -5 -5 -6 -5 -6 -5 -5 -5 -4 -4 -4 -3 -4 -3 -3 -4
0 -1 -1 -2 -2 -3 -3 -3 -4 -4 -4 -5 -5 -6 -6 -6 -6 -6 -6 -6 -6 -6 -5 -5 -5 -5 -5 -5 -5 -5 -4 -5 -5 -4 -4 -4 -4 -4
-1 -1 -1 -1 -3 -3 -3 -4 -4 -4 -5 -5 -6 -6 -6 -7 -6 -6 -6 -6 -6 -6 -6 -5 -5 -5 -5 -5 -5 -5 -5 -5 -5 -5 -5 -5 -5 -5
-1 -1 -1 -2 -4 -3 -3 -4 -4 -5 -5 -6 -6 -6 -7 -7 -7 -6 -6 -6 -5 -5 -5 -5 -5 -5 -5 -5 -5 -5 -5 -5 -5 -5 -5 -5 -5 -6
-1 -2 -2 -4 -3 -4 -4 -5 -5 -5 -6 -7 -7 -6 -6 -7 -7 -7 -7 -7 -7 -7 -7 -6 -6 -6 -5 -5 -6 -6 -5 -5 -6 -6 -6 -6 -6 -6
-2 -3 -4 -4 -4 -4 -5 -5 -5 -5 -6 -7 -7 -6 -6 -7 -7 -7 -7 -7 -7 -7 -8 -8 -8 -7 -6 -7 -6 -6 -5 -6 -6 -6 -6 -7 -7 -7
-3 -4 -4 -5 -6 -6 -6 -5 -6 -6 -6 -7 -7 -7 -7 -7 -7 -7 -7 -8 -8 -8 -8 -8 -8 -7 -7 -7 -7 -7 -6 -6 -7 -7 -8 -9 -9 -9
-4 -4 -5 -6 -6 -6 -5 -6 -6 -6 -6 -7 -6 -7 -7 -7 -8 -8 -8 -8 -8 -8 -8 -8 -8 -8 -8 -7 -7 -7 -7 -7 -8 -8 -8 -9 -9 -9
-5 -5 -6 -7 -6 -6 -6 -6 -7 -7 -6 -7 -7 -7 -7 -7 -8 -8 -8 -8 -9 -8 -9 -8 -9 -8 -8 -7 -8 -8 -8 -8 -9 -9 -9 -9 -9 -9
-6 -6 -7 -7 -6 -7 -7 -7 -7 -7 -7 -7 -7 -7 -8 -8 -8 -8 -8 -8 -9 -9 -9 -9 -9 -9 -8 -8 -8 -8 -8 -8 -9 -9 -9 -10 -10 -10
-6 -7 -8 -7 -7 -7 -7 -7 -8 -7 -7 -7 -8 -8 -8 -8 -8 -8 -8 -8 -9 -9 -9 -10 -10 -10 -9 -9 -8 -8 -9 -9 -9 -9 -10 -10 -10 -10
-8 -9 -8 -8 -8 -8 -7 -8 -8 -7 -8 -8 -9 -8 -8 -8 -8 -8 -8 -9 -9 -9 -10 -10 -10 -10 -10 -9 -9 -8 -9 -9 -10 -10 -10 -10 -10 -10
-10 -9 -8 -9 -8 -8 -8 -8 -8 -8 -8 -9 -9 -9 -9 -8 -8 -8 -9 -9 -10 -10 -10 -9 -9 -10 -10 -10 -10 -9 -9 -9 -10 -10 -10 -10 -11 -11
-10 -9 -9 -9 -8 -8 -8 -8 -8 -9 -9 -9 -9 -9 -9 -9 -9 -9 -9 -10 -10 -10 -10 -10 -9 -10 -10 -10 -10 -10 -10 -11 -11 -11 -11 -11 -11 -11
-10 -9 -9 -9 -9 -8 -8 -8 -8 -9 -10 -9 -9 -9 -9 -9 -9 -9 -10 -10 -11 -10 -10 -10 -10 -10 -11 -11 -11 -11 -11 -11 -11 -12 -12 -11 -12 -12
-10 -9 -9 -9 -9 -8 -9 -9 -9 -9 -9 -9 -9 -9 -9 -10 -10 -10 -10 -10 -11 -11 -11 -11 -11 -11 -11 -11 -11 -11 -11 -12 -12 -12 -12 -12 -12 -13
-10 -10 -9 -9 -9 -9 -9 -9 -9 -9 -9 -9 -9 -9 -10 -10 -10 -10 -10 -10 -11 -11 -11 -11 -11 -11 -11 -12 -12 -12 -12 -12 -12 -12 -12 -13 -13 -12
-10 -10 -9 -9 -9 -9 -9 -9 -9 -9 -9 -9 -10 -10 -10 -10 -10 -10 -10 -10 -11 -11 -11 -11 -12 -12 -12 -12 -12 -12 -12 -13 -12 -12 -13 -13 -13 -12
-10 -10 -10 -10 -10 -9 -9 -9 -9 -9 -9 -9 -10 -10 -10 -10 -10 -10 -10 -11 -11 -11 -12 -12 -12 -12 -13 -13 -13 -12 -12 -12 -12 -12 -12 -12 -12 -11

GFSNE_700_temp_246.txt.gz
Temp
3 3 3 3 2 0 -1 -0 -1 -2 -2 -1 -2 -2 -2 -2 -3 -3 -4 -4 -5 -5 -5 -6 -6 -6 -6 -5 -5 -5 -4 -4 -3 -3 -3 -3 -2 -2
3 2 2 1 0 0 -0 -1 -2 -2 -2 -2 -2 -3 -2 -2 -3 -4 -4 -4 -5 -5 -5 -6 -6 -5 -6 -6 -6 -5 -6 -4 -4 -3 -3 -3 -2 -2
3 2 1 1 0 -0 -1 -1 -3 -2 -2 -2 -3 -3 -2 -3 -4 -4 -4 -4 -4 -5 -6 -5 -6 -5 -6 -6 -6 -6 -6 -5 -4 -4 -3 -3 -2 -2
2 2 1 0 -0 0 -1 -2 -2 -2 -3 -3 -3 -2 -2 -3 -4 -4 -4 -4 -4 -5 -4 -5 -5 -5 -5 -6 -6 -6 -5 -5 -5 -4 -4 -3 -2 -2
1 0 -0 0 -0 -1 -2 -2 -1 -3 -3 -3 -3 -2 -3 -4 -4 -5 -4 -5 -5 -4 -4 -5 -5 -5 -5 -5 -6 -6 -5 -5 -5 -4 -4 -3 -3 -3
0 -0 -1 -0 -1 -1 -1 -2 -2 -3 -3 -3 -3 -3 -3 -4 -4 -4 -5 -4 -5 -5 -6 -5 -5 -5 -4 -5 -5 -5 -5 -5 -5 -4 -4 -3 -3 -3
-1 -0 -1 -1 -1 -2 -2 -2 -3 -3 -3 -3 -3 -4 -4 -5 -5 -5 -5 -5 -5 -5 -5 -5 -4 -5 -4 -4 -5 -5 -5 -5 -5 -4 -4 -4 -4 -5
-2 -2 -2 -2 -2 -2 -2 -3 -3 -4 -4 -3 -4 -5 -5 -5 -5 -5 -5 -4 -5 -6 -5 -5 -5 -5 -4 -4 -5 -5 -5 -5 -6 -5 -5 -5 -5 -5
-1 -2 -1 -1 -2 -2 -3 -3 -4 -4 -4 -4 -5 -5 -5 -5 -5 -6 -6 -5 -6 -6 -6 -6 -5 -5 -5 -5 -5 -5 -5 -5 -5 -5 -5 -5 -5 -5
-1 -1 -1 -1 -2 -3 -3 -4 -4 -5 -4 -5 -5 -5 -6 -6 -5 -6 -6 -6 -6 -6 -7 -7 -6 -5 -5 -5 -5 -5 -5 -5 -5 -6 -5 -6 -6 -6
-1 -1 -2 -4 -3 -4 -4 -4 -6 -7 -5 -6 -5 -6 -6 -6 -6 -6 -7 -6 -7 -7 -8 -7 -7 -8 -8 -7 -6 -6 -6 -5 -5 -5 -6 -6 -6 -6
-3 -5 -5 -4 -5 -5 -5 -5 -7 -7 -6 -6 -6 -6 -6 -7 -6 -7 -7 -7 -7 -7 -8 -8 -7 -8 -8 -8 -6 -7 -6 -6 -6 -6 -6 -6 -7 -7
-5 -5 -5 -5 -5 -5 -5 -7 -8 -6 -6 -6 -6 -7 -7 -7 -7 -7 -7 -7 -7 -8 -9 -8 -8 -8 -8 -8 -7 -7 -7 -7 -7 -8 -8 -7 -8 -8
-6 -6 -6 -6 -6 -6 -7 -9 -7 -7 -7 -7 -7 -7 -7 -7 -7 -8 -7 -8 -7 -8 -9 -8 -9 -9 -8 -8 -8 -8 -8 -8 -8 -8 -8 -9 -9 -9
-7 -7 -6 -6 -6 -7 -10 -9 -7 -7 -7 -8 -7 -8 -7 -8 -8 -8 -7 -8 -8 -8 -9 -9 -9 -8 -8 -8 -7 -8 -8 -8 -8 -9 -9 -9 -8 -9
-7 -7 -7 -7 -7 -9 -9 -8 -8 -8 -8 -8 -8 -8 -8 -8 -8 -8 -8 -8 -8 -9 -9 -9 -9 -8 -8 -8 -8 -8 -8 -8 -8 -9 -9 -8 -9 -10
-8 -8 -8 -8 -9 -10 -9 -8 -8 -8 -8 -9 -9 -9 -9 -8 -8 -8 -8 -8 -9 -9 -9 -9 -9 -9 -9 -9 -9 -8 -8 -9 -9 -9 -9 -9 -10 -10
-9 -9 -10 -10 -10 -10 -9 -9 -8 -8 -8 -9 -10 -9 -9 -8 -8 -8 -8 -9 -9 -10 -10 -10 -9 -9 -9 -10 -9 -9 -9 -9 -9 -9 -9 -10 -10 -10
-10 -10 -10 -10 -10 -9 -9 -8 -9 -9 -9 -10 -9 -10 -9 -9 -8 -9 -9 -9 -10 -10 -10 -10 -10 -9 -9 -9 -10 -10 -9 -9 -9 -10 -10 -10 -10 -10
-10 -10 -10 -10 -10 -9 -9 -9 -9 -9 -9 -9 -10 -10 -9 -9 -9 -9 -9 -10 -10 -11 -11 -10 -10 -10 -10 -11 -10 -10 -10 -10 -10 -10 -11 -11 -11 -11
-10 -10 -10 -10 -10 -9 -9 -9 -9 -9 -9 -9 -10 -10 -10 -10 -9 -10 -10 -10 -10 -11 -11 -11 -10 -10 -11 -11 -11 -11 -11 -11 -11 -11 -11 -11 -12 -12
-11 -11 -10 -10 -10 -10 -9 -9 -10 -10 -10 -10 -10 -10 -10 -10 -10 -10 -10 -10 -10 -11 -11 -11 -11 -11 -11 -11 -11 -11 -11 -11 -11 -12 -12 -12 -12 -12
-11 -11 -10 -10 -10 -10 -10 -10 -10 -10 -10 -10 -10 -10 -10 -10 -10 -10 -10 -11 -11 -11 -11 -11 -11 -11 -11 -11 -11 -11 -11 -12 -12 -12 -12 -12 -12 -13

GFSNE_700_temp_249.txt.gz
Temp
4 4 3 3 3 3 2 1 1 1 1 1 -1 -1 -2 -2 -2 -1 -2 -2 -2 -2 -3 -3 -4 -4 -5 -5 -5 -5 -5 -5 -5 -5 -4 -3 -3 -3
3 4 3 3 2 3 2 1 1 1 0 -1 -2 -2 -2 -2 -2 -2 -2 -2 -3 -3 -3 -3 -4 -4 -5 -5 -4 -5 -5 -5 -5 -5 -5 -4 -4 -3
4 4 4 3 2 2 1 1 0 -0 -0 -2 -2 -2 -2 -3 -3 -3 -2 -3 -3 -3 -3 -3 -4 -4 -4 -4 -4 -5 -6 -6 -6 -5 -6 -4 -4 -3
4 4 4 3 2 1 1 1 0 -0 -0 -1 -2 -2 -2 -3 -3 -3 -3 -3 -3 -3 -3 -3 -4 -4 -3 -4 -4 -5 -6 -6 -6 -6 -4 -5 -4 -3
4 3 3 1 1 0 0 0 -0 -0 -1 -2 -2 -3 -2 -3 -3 -3 -4 -4 -3 -3 -3 -4 -4 -3 -3 -3 -4 -4 -5 -5 -5 -5 -5 -5 -4 -4
3 3 2 1 1 1 -0 -0 -1 -1 -2 -2 -2 -3 -3 -3 -3 -3 -4 -4 -4 -4 -4 -4 -3 -3 -4 -3 -3 -4 -5 -5 -5 -5 -4 -5 -4 -3
3 1 1 1 1 -0 -1 -1 -2 -2 -2 -3 -2 -3 -3 -3 -3 -3 -4 -4 -4 -4 -4 -4 -3 -3 -4 -3 -3 -4 -4 -5 -5 -5 -4 -4 -4 -3
2 1 0 -0 -1 -1 -1 -2 -2 -2 -2 -3 -4 -4 -4 -4 -4 -4 -4 -4 -4 -4 -4 -4 -3 -4 -4 -3 -3 -4 -4 -5 -5 -5 -4 -5 -4 -4
1 1 1 -1 -1 -1 -1 -1 -2 -3 -4 -4 -6 -6 -5 -5 -4 -4 -4 -4 -4 -4 -4 -4 -4 -4 -4 -3 -4 -5 -4 -5 -4 -4 -6 -5 -4 -4
0 1 0 -0 -1 -1 -2 -4 -4 -4 -4 -4 -6 -7 -7 -5 -5 -5 -4 -4 -4 -4 -5 -5 -5 -5 -5 -4 -4 -5 -5 -5 -4 -4 -5 -5 -5 -4
-1 -1 -0 -1 -1 -1 -4 -5 -5 -4 -4 -7 -9 -8 -7 -5 -6 -5 -5 -5 -5 -5 -5 -5 -5 -6 -6 -5 -5 -6 -5 -5 -5 -5 -6 -5 -5 -5
-2 -2 -1 -1 -3 -5 -5 -5 -5 -5 -5 -7 -9 -8 -6 -6 -5 -5 -5 -5 -6 -6 -6 -6 -6 -7 -7 -7 -7 -6 -4 -5 -5 -6 -6 -6 -6 -5
-2 -2 -3 -5 -6 -6 -5 -5 -6 -6 -7 -9 -10 -7 -6 -6 -6 -5 -6 -6 -6 -6 -7 -7 -7 -7 -8 -8 -7 -6 -5 -6 -6 -6 -6 -6 -6 -6
-6 -6 -6 -6 -6 -6 -6 -6 -6 -8 -9 -10 -8 -8 -7 -6 -6 -6 -6 -6 -6 -7 -7 -7 -8 -8 -8 -8 -7 -7 -7 -7 -6 -6 -6 -7 -7 -7
-7 -7 -7 -7 -7 -6 -6 -7 -8 -9 -10 -10 -8 -8 -7 -7 -7 -7 -7 -7 -7 -7 -7 -8 -8 -8 -8 -8 -8 -7 -7 -8 -7 -7 -8 -8 -8 -8
-8 -8 -8 -8 -8 -8 -8 -9 -10 -10 -10 -10 -9 -8 -7 -7 -8 -8 -8 -8 -7 -7 -8 -8 -8 -8 -7 -7 -8 -8 -8 -7 -8 -8 -8 -8 -8 -8
-9 -9 -9 -9 -9 -9 -10 -10 -10 -10 -10 -10 -9 -9 -8 -8 -9 -8 -8 -8 -8 -9 -8 -8 -8 -8 -7 -8 -8 -8 -8 -8 -8 -8 -8 -9 -9 -9
-9 -9 -10 -10 -10 -10 -10 -10 -10 -10 -10 -10 -9 -10 -9 -9 -8 -8 -8 -8 -8 -9 -9 -9 -9 -8 -7 -9 -8 -8 -8 -8 -8 -9 -9 -9 -9 -9
-10 -11 -11 -10 -10 -10 -10 -11 -10 -10 -10 -9 -9 -10 -10 -9 -9 -9 -9 -9 -9 -9 -9 -9 -9 -8 -8 -8 -8 -8 -8 -9 -9 -9 -9 -9 -9 -9
-11 -11 -10 -10 -10 -10 -10 -10 -10 -9 -9 -9 -10 -10 -10 -9 -9 -9 -9 -9 -10 -10 -10 -10 -10 -9 -9 -9 -9 -9 -9 -9 -9 -9 -9 -9 -9 -10
-11 -11 -11 -10 -10 -10 -10 -10 -9 -10 -9 -9 -10 -10 -10 -10 -10 -10 -10 -10 -10 -10 -10 -10 -10 -10 -10 -9 -10 -10 -10 -9 -9 -9 -9 -9 -10 -10
-11 -11 -11 -11 -10 -10 -10 -10 -10 -10 -10 -10 -10 -10 -10 -10 -10 -10 -10 -10 -10 -10 -11 -11 -11 -10 -10 -10 -10 -10 -10 -10 -10 -10 -10 -11 -11 -10
-11 -11 -11 -11 -11 -10 -10 -10 -10 -10 -10 -10 -10 -10 -11 -10 -10 -10 -10 -10 -10 -10 -10 -11 -11 -11 -11 -10 -10 -11 -11 -10 -11 -11 -11 -11 -12 -12

GFSNE_700_temp_255.txt.gz
Temp
6 6 6 6 5 5 4 5 4 4 5 4 4 3 2 2 1 2 0 -0 -0 -0 -1 0 -0 -0 -0 0 0 -0 -1 -1 -1 -2 -2 -2 -2 -2
5 5 5 5 4 4 4 4 4 4 4 4 3 3 2 2 1 1 0 -1 -1 -1 -0 -0 -1 -1 -0 -0 -1 -1 -1 -2 -2 -3 -2 -3 -3 -3
4 4 4 4 3 2 3 3 3 3 3 3 2 2 1 2 1 0 -0 -1 -1 -1 -1 -1 -1 -1 -1 -1 -1 -2 -2 -2 -2 -2 -2 -3 -3 -3
4 3 3 3 1 1 3 2 3 3 3 3 1 1 1 1 0 -0 -0 -1 -1 -2 -1 -2 -1 -1 -1 -2 -2 -2 -2 -2 -2 -2 -2 -2 -3 -3
3 3 3 2 2 2 2 3 2 2 2 2 2 1 0 -0 0 -1 -1 -2 -2 -2 -1 -2 -2 -1 -2 -2 -3 -3 -2 -2 -2 -2 -2 -3 -3 -3
2 2 2 2 2 3 2 2 2 2 2 1 0 1 0 -0 -0 -1 -2 -2 -2 -2 -1 -2 -2 -1 -2 -3 -3 -3 -2 -3 -2 -3 -3 -3 -3 -4
3 3 3 2 2 3 2 3 2 2 1 1 1 1 1 -0 -1 -1 -2 -2 -3 -3 -2 -3 -2 -2 -2 -3 -3 -3 -3 -3 -3 -3 -3 -3 -3 -4
3 3 2 2 2 2 2 1 1 1 1 1 0 0 -1 -1 -1 -1 -3 -4 -4 -3 -3 -4 -3 -3 -3 -3 -3 -3 -3 -3 -3 -3 -3 -3 -4 -4
3 2 2 2 2 2 2 1 1 1 -0 0 -1 -1 -1 -1 -2 -3 -4 -4 -4 -3 -4 -5 -4 -4 -4 -4 -3 -3 -3 -3 -3 -4 -3 -4 -4 -5
2 1 1 0 0 0 1 0 -0 -0 -1 -2 -1 -1 -2 -2 -2 -4 -5 -5 -4 -5 -5 -5 -5 -4 -4 -4 -4 -3 -3 -3 -4 -4 -3 -3 -3 -3
1 1 -0 -1 -2 -2 -1 -1 -1 -1 -1 -2 -3 -2 -3 -4 -5 -5 -4 -5 -5 -7 -8 -6 -5 -5 -5 -5 -4 -4 -4 -4 -4 -5 -4 -2 -2 -1
-1 -1 -2 -2 -3 -4 -3 -2 -3 -3 -4 -4 -4 -6 -6 -6 -6 -6 -7 -8 -8 -8 -8 -7 -6 -5 -5 -5 -4 -5 -4 -5 -5 -4 -4 -4 -2 -3
-4 -4 -5 -5 -5 -5 -5 -5 -5 -6 -6 -6 -6 -6 -6 -7 -7 -9 -9 -9 -9 -9 -8 -7 -6 -5 -5 -4 -5 -5 -6 -6 -4 -5 -4 -5 -5 -4
-6 -6 -5 -6 -6 -6 -6 -6 -6 -6 -6 -6 -7 -7 -8 -8 -9 -9 -10 -10 -9 -10 -9 -8 -7 -6 -6 -5 -5 -6 -7 -7 -6 -6 -5 -5 -5 -5
-6 -6 -6 -6 -6 -6 -6 -6 -7 -7 -7 -7 -8 -9 -9 -9 -10 -10 -9 -9 -9 -9 -9 -9 -8 -7 -6 -6 -6 -6 -7 -7 -7 -5 -5 -6 -5 -5
-7 -7 -7 -7 -7 -7 -7 -8 -8 -8 -8 -9 -10 -10 -10 -10 -10 -9 -9 -9 -9 -9 -9 -9 -8 -7 -7 -6 -6 -7 -7 -7 -7 -6 -6 -5 -6 -6
-7 -7 -8 -8 -8 -8 -8 -8 -9 -9 -9 -10 -10 -10 -10 -10 -10 -10 -10 -9 -9 -9 -9 -8 -8 -8 -7 -7 -7 -7 -8 -7 -7 -6 -6 -6 -6 -6
-8 -8 -8 -8 -9 -9 -9 -9 -10 -10 -10 -10 -10 -10 -10 -10 -10 -10 -10 -10 -9 -9 -9 -8 -8 -8 -8 -8 -7 -8 -7 -7 -7 -7 -7 -6 -7 -8
-9 -9 -9 -10 -10 -10 -10 -10 -10 -10 -10 -10 -10 -10 -10 -10 -10 -10 -10 -10 -9 -9 -9 -9 -9 -9 -9 -8 -8 -8 -8 -8 -7 -7 -7 -7 -8 -8
-10 -10 -10 -11 -10 -10 -10 -10 -10 -10 -10 -10 -11 -10 -10 -10 -10 -10 -10 -9 -9 -9 -9 -9 -9 -9 -9 -8 -8 -8 -9 -8 -8 -8 -8 -8 -9 -9
-10 -11 -11 -11 -11 -11 -10 -10 -10 -10 -10 -10 -10 -10 -10 -10 -10 -10 -10 -10 -9 -9 -9 -10 -10 -9 -9 -9 -9 -9 -9 -8 -8 -8 -8 -8 -8 -8
-11 -11 -11 -11 -11 -11 -11 -10 -10 -10 -10 -10 -10 -10 -10 -10 -10 -10 -10 -10 -10 -9 -10 -10 -10 -9 -9 -9 -9 -9 -9 -9 -9 -9 -8 -8 -8 -7
-11 -11 -11 -11 -11 -11 -11 -10 -10 -10 -10 -10 -10 -10 -10 -11 -11 -10 -10 -10 -10 -10 -10 -10 -10 -10 -10 -9 -9 -9 -9 -9 -9 -9 -9 -9 -9 -9